Change the Weather History Date:

Sunday, October 7, 2012

  Actual Average Record
Temperature  
Mean Temperature 42 °F 48 °F  
Max Temperature 57 °F 61 °F 86 °F (1920)
Min Temperature 27 °F 34 °F 10 °F (1946)
Degree Days  
Heating Degree Days 23 17  
Month to date heating degree days 164 113  
Since 1 July heating degree days 388 467  
Cooling Degree Days 0 0  
Month to date cooling degree days 0 0  
Year to date cooling degree days 591 418  
Moisture  
Dew Point 29 °F    
Average Humidity 57    
Maximum Humidity 75    
Minimum Humidity 38    
Precipitation  
Precipitation T in 0.04 in 1.13 in (1977)
Month to date precipitation 0.60 0.33  
Year to date precipitation 9.19 14.09  
Sea Level Pressure  
Sea Level Pressure 29.92 in    
Wind  
Wind Speed 12 mph (West)    
Max Wind Speed 22 mph    
Max Gust Speed 30 mph    
Visibility 10 miles    
Events Rain    
T = Trace of Precipitation, MM = Missing Value Source: NWS Daily Summary

Daily Weather History Graph

Daily Weather History Graph

Search for Another Location

Airport or City:

Trip Planner

Search our weather history database for the weather conditions in past years. The results will help you decide how hot, cold, wet, or windy it might be!

Date:

Astronomy

Oct. 07, 2012 Rise Set
Actual Time 6:58 AM MDT 6:18 PM MDT
Civil Twilight 6:28 AM MDT 6:48 PM MDT
Nautical Twilight 5:53 AM MDT 7:23 PM MDT
Astronomical Twilight 5:17 AM MDT 7:58 PM MDT
Moon 11:17 PM MDT (10/7) 1:52 PM MDT (10/7)
Length of Visible Light 12h 20m
Length of Day
11h 19m
Waning Gibbous, 55% of the Moon is Illuminated
Oct 7
Waning Gibbous
Oct 8
Last Quarter
Oct 15
New
Oct 21
First Quarter
Oct 29
Full

Hourly Weather History & Observations

Time (MDT) Temp. Windchill Dew Point Humidity Pressure Visibility Wind Dir Wind Speed Gust Speed Precip Events Conditions
12:56 AM 27.0 °F 18.0 °F 19.9 °F 75% 30.11 in 10.0 mi South 9.2 mph - N/A   Clear
1:56 AM 34.0 °F 24.6 °F 23.0 °F 64% 30.08 in 10.0 mi SW 13.8 mph - N/A   Clear
2:56 AM 32.0 °F 22.5 °F 21.9 °F 66% 30.05 in 10.0 mi WSW 12.7 mph - N/A   Clear
3:56 AM 28.9 °F 20.4 °F 21.9 °F 75% 30.03 in 10.0 mi West 9.2 mph - N/A   Clear
4:56 AM 30.9 °F 22.2 °F 21.9 °F 69% 30.02 in 10.0 mi West 10.4 mph - N/A   Mostly Cloudy
5:56 AM 32.0 °F 22.5 °F 21.9 °F 66% 30.00 in 10.0 mi West 12.7 mph - N/A   Scattered Clouds
6:56 AM 30.9 °F 21.7 °F 21.9 °F 69% 30.01 in 10.0 mi West 11.5 mph - N/A   Clear
7:56 AM 34.0 °F 26.0 °F 24.1 °F 67% 30.01 in 10.0 mi West 10.4 mph - N/A   Clear
8:56 AM 37.9 °F 29.6 °F 26.1 °F 62% 30.00 in 10.0 mi West 13.8 mph - N/A   Overcast
9:56 AM 46.0 °F 39.6 °F 30.0 °F 54% 29.98 in 10.0 mi West 15.0 mph - N/A   Scattered Clouds
10:56 AM 48.9 °F - 30.9 °F 50% 29.98 in 10.0 mi WNW 13.8 mph - N/A   Clear
11:56 AM 54.0 °F - 30.9 °F 41% 29.95 in 10.0 mi WNW 11.5 mph 23.0 mph N/A   Clear
12:56 PM 54.0 °F - 30.9 °F 41% 29.93 in 10.0 mi WNW 21.9 mph 28.8 mph N/A   Partly Cloudy
1:56 PM 54.0 °F - 30.9 °F 41% 29.90 in 10.0 mi WNW 15.0 mph 24.2 mph N/A   Clear
2:56 PM 55.9 °F - 30.9 °F 39% 29.87 in 10.0 mi WNW 12.7 mph 24.2 mph N/A   Partly Cloudy
3:56 PM 55.0 °F - 30.9 °F 40% 29.86 in 10.0 mi WNW 16.1 mph - N/A   Scattered Clouds
4:56 PM 54.0 °F - 30.9 °F 41% 29.85 in 10.0 mi WNW 15.0 mph - N/A   Mostly Cloudy
5:56 PM 52.0 °F - 32.0 °F 47% 29.84 in 10.0 mi NW 5.8 mph - N/A   Overcast
6:56 PM 48.0 °F - 33.1 °F 56% 29.83 in 10.0 mi Calm Calm - N/A   Overcast
7:56 PM 48.0 °F - 34.0 °F 58% 29.82 in 10.0 mi South 3.5 mph - N/A   Overcast
8:56 PM 48.9 °F - 34.0 °F 56% 29.79 in 10.0 mi SW 9.2 mph - 0.00 in Rain Light Rain
9:56 PM 48.9 °F - 35.1 °F 59% 29.73 in 10.0 mi SSW 10.4 mph - 0.00 in   Overcast
10:56 PM 51.1 °F - 37.0 °F 59% 29.69 in 10.0 mi SW 13.8 mph - N/A   Overcast
11:56 PM 50.0 °F - 37.0 °F 61% 29.67 in 10.0 mi WSW 13.8 mph - 0.00 in Rain Light Rain